Back to catalog

WESTFORD NEEDLES

LostPO
NORAD 2531·DEBRIS·🇺🇸 United States

Launched May 9, 1963 from Vandenberg Space Force Base

Loading…

Next Passes (next 24 hours)

TLE

StaleSource: Space-Track

Epoch: May 31, 2024, 04:28 UTC

1  2531U 63014AK  24152.18667443  .00000001  00000-0 -10627-2 0  9998
2  2531  87.3002 233.7703 0023550 107.9316 252.4109  8.67338680362575

Track WESTFORD NEEDLES in real time with AllMySat

Download on the App Store